Preview of NWS' New Version of Forecast
This preview is not operational and should not be used for support decisions.
Latest weather observations around

Troy, Troy Municipal Airport (KTOI)

Using English Units (Switch to International System of Units)
Date/ Time (CDT) Wind (mph) Vis. (mi) Weather Sky Cond. Temp (°F) Rel. Humidity Wind Chill (°F) Heat Index (°F) Pressure Precip. (in)
Air Dwpt 6 hour Altimeter (inHg) Sea level (inHg) 1 hr 3 hr 6 hr
Max Min
Apr 22 02:53 ESE 10 10 Light Rain OVC017 65 60     84%     30.1 30.09 0    
Apr 22 01:53 E 8 10 Cloudy OVC017 65 59     81%     30.14 30.12 0    
Apr 22 00:53 E 13 10 Light Rain OVC019 65 59     81%     30.15 30.14 0   0
Apr 21 23:53 ESE 11 10 Light Rain OVC021 66 59     78%     30.16 30.15 0    
Apr 21 22:53 SE 9 10 Cloudy OVC023 66 59     78%     30.17 30.16      
Apr 21 22:22 E 8 10 Cloudy BKN025 OVC050 66 58     75%     30.17        
Apr 21 21:53 ENE 6 10 Mostly Cloudy BKN055 BKN075 BKN085 65 57     76%     30.16 30.15      
Apr 21 20:53 E 9 10 Partly Cloudy SCT049 SCT060 SCT085 66 57     73%     30.16 30.15      
Apr 21 19:53 E 10 10 Clear CLR 68 57     68%     30.15 30.14      
Apr 21 18:53 E 13 10 Mostly Cloudy BKN060 70 56     61%     30.14 30.14     0
Apr 21 17:53 E 7 10 Cloudy BKN050 OVC070 73 56     55%   73 30.15 30.14      
Apr 21 16:53 E 7 10 Cloudy BKN050 OVC065 74 56     53%   74 30.15 30.14      
Apr 21 15:53 E 7 10 Cloudy FEW047 OVC055 74 56     53%   74 30.16 30.15 0 0  
Apr 21 14:53 E 10 10 Light Rain BKN049 OVC065 76 56     50%   76 30.17 30.16 0    
Apr 21 13:53 ESE 10 10 Light Rain FEW046 SCT065 75 55     50%   75 30.19 30.18 0    
Apr 21 12:53 E 11 10 Light Rain FEW040 74 53     48%   73 30.2 30.19 0   0
Apr 21 11:53 E 11 10 Mostly Clear FEW038 71 50     47%   70 30.23 30.22      
Apr 21 10:53 ENE 9 10 Mostly Clear FEW029 69 48     47%     30.25 30.24      
Apr 21 09:53 ENE 9 10 Mostly Cloudy FEW027 BKN032 BKN043 64 45     50%     30.26 30.25      
Apr 21 08:53 E 11 10 Mostly Cloudy SCT034 BKN042 58 46     65%     30.26 30.25      
Apr 21 07:53 ENE 8 10 Mostly Cloudy SCT050 BKN065 55 46     72%     30.26 30.25      
Apr 21 06:53 NE 7 10 Clear CLR 49 45     86% 46   30.25 30.24      
Apr 21 05:53 NE 6 10 Clear CLR 47 44     90% 44   30.24 30.23      
Apr 21 04:53 NE 5 10 Clear CLR 47 43     86% 45   30.23 30.22      
Apr 21 03:53 NE 3 10 Clear CLR 47 44     90% 46   30.23 30.22      
Apr 21 02:53 Calm 8 Clear CLR 45 44     97%     30.23 30.22      
Apr 21 01:53 Calm 8 Clear CLR 45 44     97%     30.22 30.22      
Apr 21 00:53 Calm 10 Clear CLR 49 45     86%     30.23 30.23      
Apr 20 23:53 Calm 8 Clear CLR 50 46     86%     30.23 30.22      
Apr 20 22:53 ENE 3 8 Clear CLR 50 46     86% 49   30.24 30.23      
Apr 20 21:53 ENE 3 8 Clear CLR 51 47     86%     30.24 30.24      
Apr 20 20:53 Calm 9 Clear CLR 55 46     72%     30.24 30.23      
Apr 20 19:53 NE 5 9 Clear CLR 62 44     52%     30.22 30.22      
Apr 20 18:53 NE 7 10 Clear CLR 65 43     45%     30.22 30.21      
Apr 20 17:53 ENE 5 10 Clear CLR 70 42     36%     30.21 30.21      
Apr 20 16:53 E 10 10 Clear CLR 71 42     35%   70 30.21 30.2      
Apr 20 15:53 E 8 10 Clear CLR 72 43     35%   71 30.22 30.21      
Apr 20 14:53 NE 8 10 Clear CLR 71 43     36%   70 30.23 30.23      
Apr 20 13:53 NE 9 10 Clear CLR 69 42     38%     30.24 30.23      
Apr 20 12:53 NE 8 10 Clear CLR 67 42     40%     30.26 30.25      
Apr 20 11:53 NE 13 10 Clear CLR 65 41     42%     30.28 30.27      
Apr 20 10:53 7 10 Clear CLR 62 40     44%     30.28 30.27      
Apr 20 09:53 E 9 10 Clear CLR 59 38     45%     30.27 30.26      
Apr 20 08:53 ENE 15 10 Clear CLR 55 38     52%     30.26 30.26      
Apr 20 07:53 NE 9 10 Clear CLR 49 38     66% 45   30.26 30.25      
Apr 20 06:53 NNE 3 10 Clear CLR 44 37     76% 43   30.24 30.24      
Apr 20 05:53 N 5 10 Clear CLR 43 36     76% 40   30.23 30.22      
Apr 20 04:53 NNE 7 10 Clear CLR 45 36     71% 41   30.2 30.19      
Apr 20 03:53 N 3 10 Clear CLR 45 37     74% 44   30.19 30.18      
Apr 20 02:53 N 7 10 Clear CLR 45 38     76% 41   30.19 30.18      
Apr 20 01:53 N 6 10 Clear CLR 47 38     71% 44   30.19 30.18      
Apr 20 00:53 N 6 10 Clear CLR 49 38     66% 46   30.19 30.18      
Apr 19 23:53 N 7 10 Clear CLR 52 38     59%     30.2 30.19      
Apr 19 22:53 N 10 10 Clear CLR 55 39     55%     30.19 30.18      
Apr 19 21:53 N 11 10 Clear CLR 57 40     53%     30.18 30.17      
Apr 19 19:53 NNW 9 10 Clear CLR 61 44     54%     30.14 30.13      
Apr 19 18:53 NW 8 10 Clear CLR 67 43     42%     30.11 30.1      
Apr 19 17:53 NW 10 10 Clear CLR 71 43     36%   70 30.1 30.09      
Apr 19 16:53 WNW 11 10 Clear CLR 73 43     34%   72 30.1 30.08      
Apr 19 15:53 W 13 10 Clear CLR 74 40     29%   72 30.09 30.08      
Apr 19 14:53 W 14 10 Clear CLR 73 40     30%   71 30.1 30.09      
Apr 19 13:53 N 11 10 Clear CLR 74 46     37%   73 30.12 30.1      
Apr 19 12:53 NNW 14 10 Clear CLR 75 47     37%   74 30.11 30.1      
Apr 19 11:53 WNW 10 10 Clear CLR 73 45     37%   72 30.11 30.09      
Apr 19 08:53 NW 11 10 Mostly Cloudy SCT015 BKN021 68 60     76%     30.08 30.06      
Apr 19 08:33 WNW 9 10 Mostly Cloudy SCT013 BKN020 66 62     87%     30.07        
Apr 19 07:53 WNW 7 10 Cloudy OVC011 65 62     90%     30.07 30.06      
Apr 19 07:03 W 5 10 Mostly Cloudy BKN010 64 62     93%     30.05        
Apr 19 06:53 3 10 Mostly Cloudy BKN008 BKN013 63 62     97%     30.05 30.03      
Apr 19 06:51 3 10 Mostly Cloudy BKN008 63 63     100%     30.05        
Notice The following observation data may not be complete
Apr 19 06:12   10 Cloudy OVC007          %              
Apr 19 05:53 WSW 7 10 Cloudy OVC006 63 62     97%     30.02 30.01      
Apr 19 04:53 SW 6 10 Mostly Cloudy BKN007 62 62     100%     30 29.99      
Apr 19 04:34 SSW 6 10 Mostly Cloudy BKN007 62 62     100%     30        
Apr 19 03:53 SSW 5 10 Mostly Clear FEW008 62 62     100%     30 29.98      
Jun 12 06:39 3 10 Mostly Clear FEW002 71 71     100%   73 30.15        
Jun 12 05:53 Calm 10 Mostly Clear FEW011 70 70     100%     30.14 30.12      
Jun 11 21:53 SSW 3 9 Cloudy OVC100 74 70     87%   75 30.15 30.13 0 0  
Jun 11 20:00 Calm 10 Cloudy OVC070 75 74     96%   77 30.11        
Notice The following observation data may not be complete
Jun 11 07:13   10 Partly Cloudy SCT016          %              
Jun 10 12:53 ESE 9 10 Mostly Cloudy FEW050 BKN075 87 64     46%   88 30.08 30.06      
Jun 10 04:53 Calm 10 Clear CLR 63 63     100%     30.01 30      
Jun 09 15:53   10 Clear CLR 86 60     42%   86 29.93 29.92      
Jun 08 12:53 6 10 Mostly Clear FEW040 81 62     53%   82 29.91 29.89      
Jun 08 09:53 5 10 Clear CLR 73 62     68%   73 29.91 29.9      
Jun 08 07:53 NE 8 10 Clear CLR 68 63     84%     29.9 29.89      
Jun 08 00:53 Calm 10 Clear CLR 68 67     96%     29.84 29.82      
Jun 07 10:53 NE 10 10 Mostly Cloudy BKN019 BKN024 BKN032 79 70     74%   82 29.76 29.74      
Notice The following observation data may not be complete
Jun 06 03:28   8 Partly Cloudy FEW002 SCT015          %              
Jun 05 22:53 Calm 10 Cloudy SCT024 BKN050 OVC095 72 72     100%   74 29.84 29.83      
Jun 05 16:53 S 8 10 Mostly Clear FEW032 81 71     72%   85 29.8 29.78      
Jun 05 15:53 SSE 8 10 Mostly Clear FEW018 79 73     82%   82 29.8 29.78   0  
Jun 05 14:32 S 5 10 Mostly Clear FEW007 75 73     94%   77 29.84   0